Location: El Diablo
(32.4667°N, 116.4500°W)
Time: 01:36:42
(UTC+00:00)

ISS - Visible Passes

Search period start: 22 January 2026 00:00
Search period end: 01 February 2026 00:00
Orbit: 413 x 423 km, 51.6° (Epoch: 21 January)

Date Brightness Start Highest point End Pass type
(mag) Time Alt. Az. Time Alt. Az. Time Alt. Az.
27 Jan -1.4 02:18:35 10° N 02:19:23 12° NNE 02:19:23 12° NNE visible
28 Jan -1.5 03:05:39 10° NW 03:06:42 19° NNW 03:06:42 19° NNW visible
29 Jan -2.8 02:17:41 10° NNW 02:20:39 29° NE 02:21:15 27° ENE visible
30 Jan -2.4 03:06:00 10° WNW 03:09:02 37° SW 03:09:02 37° SW visible
31 Jan -3.7 02:17:34 10° NW 02:20:53 80° SW 02:24:11 10° SE visible
